[[{"header":{"parameterUnit":"m.s-1","parameterCategory":2,"la1":30.2991,"la2":30.254,"lo1":-89.0895,"lo2":-89.0444,"dy":0.0017,"dx":0.0017,"nx":28,"ny":28,"refTime":"2024-06-07T09:00:00:Z","depth":"0","parameterNumber":2,"parameterNumberName":"U-component_of_CURRENTS"},"data":[0,0,0,0,0,0,0,0,0,0,0,0,0,0,0,0,0,0,0,0,0,0,0,0,0,0,0,0,0,0,0,0,0,0,0,0,0,0,0,0,0,0,0,0,0,0,0,0,0,0,0,0,0,0,0,0,0,0,-0.3524,-0.3529,0,-0.3898,-0.3902,-0.3905,-0.4017,-0.4017,-0.4016,-0.4015,-0.4136,-0.4139,-0.4143,0,0,0,0,0,0,0,0,0,0,0,0,0,-0.31,-0.3105,-0.3523,-0.3529,-0.3535,-0.3898,-0.3902,-0.3905,-0.4017,-0.4017,-0.4016,-0.4015,-0.4134,-0.4139,-0.4143,0,0,0,0,0,0,0,0,0,0,0,0,0,-0.3346,-0.3107,-0.3522,-0.3645,-0.3661,-0.3897,-0.3902,-0.3906,-0.4017,-0.4017,-0.4016,-0.4015,-0.4133,-0.4138,-0.4144,-0.4198,0,0,-0.4161,-0.4164,0,0,0,0,0,0,0,0,-0.3332,-0.336,-0.3621,-0.3637,-0.3655,-0.3922,-0.3798,-0.3996,-0.4018,-0.3867,-0.4015,-0.4014,-0.405,-0.4063,-0.4119,-0.4203,-0.4208,-0.4162,-0.4165,-0.4168,-0.4169,0,0,0,0,0,0,0,-0.3314,-0.3346,-0.3657,-0.3628,-0.3649,-0.375,-0.378,-0.3837,-0.3943,-0.388,-0.3893,-0.3957,-0.4056,-0.4114,-0.4122,-0.421,-0.4162,-0.4167,-0.417,-0.4172,-0.4237,-0.4235,0,0,0,0,0,0,-0.3288,-0.3329,-0.3646,-0.367,-0.3504,-0.3758,-0.3792,-0.3826,-0.3949,-0.3973,-0.3958,-0.3961,-0.4104,-0.4116,-0.4127,-0.4091,-0.4168,-0.4173,-0.4176,-0.4239,-0.4237,-0.4235,0,0,0,0,0,0,-0.3277,-0.3312,-0.3631,-0.3521,-0.357,-0.3767,-0.3804,-0.3834,-0.3891,-0.4014,-0.4029,-0.3985,-0.4104,-0.4119,-0.4149,-0.41,-0.4175,-0.4181,-0.4241,-0.4238,-0.4236,-0.4087,0,0,0,0,0,0,-0.3262,-0.3304,-0.3301,-0.3518,-0.3576,-0.3728,-0.3808,-0.3843,-0.394,-0.3947,-0.4042,-0.4053,-0.4104,-0.414,-0.4155,-0.4109,-0.4185,-0.4243,-0.4239,-0.4237,-0.4094,-0.4079,-0.4067,0,0,0,0,0,-0.3245,-0.3246,-0.3298,-0.3337,-0.357,-0.3728,-0.3763,-0.3893,-0.3941,-0.3942,-0.401,-0.405,-0.413,-0.4145,-0.4162,-0.4116,-0.4244,-0.424,-0.4237,-0.41,-0.4082,-0.4067,0,0,0,0,0,0,-0.3085,-0.3267,-0.3326,-0.3387,-0.3529,-0.3751,-0.3779,-0.3887,-0.3955,-0.3944,-0.4048,-0.4063,-0.4063,-0.4118,-0.4132,-0.4124,-0.4186,-0.4186,-0.4076,-0.406,-0.4047,-0.3971,-0.419,0,0,0,0,0,-0.3046,-0.3077,-0.3281,-0.3331,-0.3382,-0.3578,-0.3658,-0.3751,-0.3866,-0.3898,-0.3979,-0.4036,-0.4067,-0.4085,-0.4123,-0.4137,-0.4119,-0.4113,-0.41,-0.4088,-0.4037,-0.3979,-0.3954,-0.4222,-0.4222,-0.4222,0,0,-0.3015,-0.3112,-0.314,-0.3296,-0.3406,-0.3477,-0.3616,-0.3717,-0.3763,-0.3894,-0.3934,-0.3994,-0.406,-0.4059,-0.4064,-0.4097,-0.4001,-0.4083,-0.4073,-0.4027,-0.3972,-0.3945,-0.3921,-0.422,-0.422,-0.4221,0,0,-0.297,-0.3027,-0.304,-0.3127,-0.3283,-0.3392,-0.3414,-0.3612,-0.3658,-0.3741,-0.3812,-0.3826,-0.3941,-0.3939,-0.3962,-0.3898,-0.393,-0.3934,-0.381,-0.3754,-0.373,-0.3709,-0.3637,-0.3611,-0.3931,-0.393,-0.393,0,-0.2921,-0.2975,-0.3073,-0.3106,-0.3172,-0.3339,-0.3377,-0.3451,-0.3635,-0.3656,-0.3715,-0.3812,-0.3861,-0.3826,-0.38,-0.3858,-0.3844,-0.3867,-0.3732,-0.3711,-0.3691,-0.3623,-0.3596,-0.3923,-0.3923,-0.3924,-0.3925,0,-0.2907,-0.2936,-0.2943,-0.3022,-0.3084,-0.3143,-0.3264,-0.3308,-0.3403,-0.3498,-0.3507,-0.3578,-0.3629,-0.3647,-0.3711,-0.3604,-0.3642,-0.3717,-0.3762,-0.3654,-0.3591,-0.3565,-0.3912,-0.3914,-0.3917,-0.3919,0,0,-0.2841,-0.2919,-0.292,-0.2939,-0.3041,-0.3107,-0.3112,-0.3194,-0.3211,-0.3304,-0.3314,-0.3334,-0.3384,-0.3407,-0.3472,-0.342,-0.3273,-0.3507,-0.3508,-0.3414,-0.3137,-0.3067,-0.3033,-0.3344,-0.3339,-0.3335,-0.3141,0,-0.281,-0.2837,-0.2882,-0.2902,-0.2927,-0.3011,-0.3018,-0.3083,-0.3152,-0.3186,-0.3201,-0.3236,-0.329,-0.332,-0.3258,-0.331,-0.3201,-0.3316,-0.3272,-0.3268,-0.3203,-0.2999,-0.2914,-0.2726,-0.3116,-0.3112,-0.3109,0,-0.2784,-0.2808,-0.2815,-0.2852,-0.2866,-0.2885,-0.2915,-0.295,-0.2983,-0.3032,-0.3023,-0.3086,-0.3018,-0.3096,-0.2994,-0.3083,-0.3051,-0.3061,-0.3056,-0.3014,-0.3148,-0.2902,-0.2665,-0.2658,-0.3069,-0.3073,-0.3075,0,-0.2711,-0.2755,-0.2753,-0.277,-0.2834,-0.2826,-0.2857,-0.2895,-0.2916,-0.2923,-0.2949,-0.29,-0.2909,-0.2846,-0.287,-0.2932,-0.2763,-0.2866,-0.2731,-0.2728,-0.2648,-0.2645,-0.2372,-0.2688,-0.2689,-0.2689,-0.269,0,-0.2661,-0.2655,-0.272,-0.272,-0.271,-0.2765,-0.2753,-0.2783,-0.2812,-0.2817,-0.2854,-0.2845,-0.2851,-0.2802,-0.2787,-0.2662,-0.2679,-0.2616,-0.2637,-0.2595,-0.259,-0.2582,-0.265,-0.2682,-0.2684,-0.2685,-0.2686,0,-0.2566,-0.2616,-0.2616,-0.2665,-0.2676,-0.2663,-0.2704,-0.2706,-0.2745,-0.2745,-0.2744,-0.278,-0.2707,-0.2679,-0.2598,-0.2557,-0.2411,-0.2403,-0.234,-0.2353,-0.2216,-0.2281,-0.2028,-0.1969,-0.2182,-0.2178,-0.2175,0,-0.2514,-0.251,-0.2556,-0.256,-0.2574,-0.2581,-0.2593,-0.2653,-0.2666,-0.2709,-0.2699,-0.265,-0.2592,-0.2428,-0.2334,-0.2183,-0.2244,-0.2033,-0.2093,-0.2091,-0.2183,-0.2251,-0.2227,-0.1933,-0.1929,-0.1925,-0.1922,0,-0.24,-0.2423,-0.2431,-0.2446,-0.2457,-0.2467,-0.2489,-0.2494,-0.2566,-0.2568,-0.2545,-0.2496,-0.2358,-0.2181,-0.2014,-0.194,-0.1996,-0.1947,-0.1953,-0.1912,-0.1957,-0.1954,-0.2195,-0.1888,-0.1891,-0.1894,-0.1896,-0.1897,-0.2301,-0.2285,-0.2308,-0.2303,-0.2325,-0.2316,-0.2265,-0.2322,-0.2306,-0.2274,-0.2341,-0.2232,-0.2116,-0.1859,-0.1763,-0.1603,-0.1701,-0.1581,-0.1642,-0.1697,-0.1661,-0.1797,-0.1532,-0.1533,-0.1534,-0.1535,-0.1536,0,-0.2163,-0.2164,-0.2163,-0.2146,-0.2104,-0.2165,-0.2163,-0.209,-0.2019,-0.2063,-0.2002,-0.1896,-0.1708,-0.1616,-0.1446,-0.1352,-0.1341,-0.1337,-0.142,-0.1396,-0.1493,-0.1506,-0.1211,-0.1211,-0.1211,-0.1211,-0.1212,-0.1212,-0.2087,-0.2034,-0.2034,-0.1912,-0.19,-0.1778,-0.1735,-0.1674,-0.1661,-0.1569,-0.1547,-0.1541,-0.1481,-0.1534,-0.1375,-0.1289,-0.1286,-0.1236,-0.1272,-0.139,-0.1419,-0.1448,-0.1469,-0.1171,-0.1172,-0.1121,-0.1121,-0.1121]},{"header":{"parameterUnit":"m.s-1","parameterCategory":2,"la1":30.2991,"la2":30.254,"lo1":-89.0895,"lo2":-89.0444,"dy":0.0017,"dx":0.0017,"nx":28,"ny":28,"refTime":"2024-06-07T09:00:00:Z","depth":"0","parameterNumber":3,"parameterNumberName":"V-component_of_CURRENTS"},"data":[0,0,0,0,0,0,0,0,0,0,0,0,0,0,0,0,0,0,0,0,0,0,0,0,0,0,0,0,0,0,0,0,0,0,0,0,0,0,0,0,0,0,0,0,0,0,0,0,0,0,0,0,0,0,0,0,0,0,-0.0624,-0.0623,0,-0.0478,-0.0476,-0.0474,-0.0353,-0.0352,-0.0351,-0.035,-0.0017,-0.0009,-0.0001,0,0,0,0,0,0,0,0,0,0,0,0,0,-0.0672,-0.0673,-0.0624,-0.0623,-0.0621,-0.0478,-0.0476,-0.0474,-0.0354,-0.0352,-0.0351,-0.0349,-0.0019,-0.001,-0.0001,0,0,0,0,0,0,0,0,0,0,0,0,0,-0.0601,-0.0673,-0.0625,-0.0545,-0.0536,-0.0479,-0.0476,-0.0473,-0.0354,-0.0352,-0.035,-0.0349,-0.0022,-0.0011,0.0,0.0037,0,0,0.0036,0.0041,0,0,0,0,0,0,0,0,-0.0605,-0.0599,-0.0558,-0.055,-0.054,-0.0433,-0.0371,-0.0294,-0.0354,-0.0422,-0.035,-0.0348,-0.0141,-0.0119,-0.0097,0.0053,0.0067,0.0037,0.0044,0.0049,0.0053,0,0,0,0,0,0,0,-0.061,-0.0604,-0.0565,-0.0556,-0.0546,-0.0472,-0.0461,-0.0356,-0.0289,-0.0416,-0.0407,-0.0393,-0.0134,-0.0108,-0.0087,0.0072,0.0037,0.0047,0.0054,0.0059,0.0285,0.0285,0,0,0,0,0,0,-0.064,-0.061,-0.057,-0.0561,-0.057,-0.0473,-0.0461,-0.0468,-0.0293,-0.0267,-0.0395,-0.0388,-0.0129,-0.0101,-0.0075,-0.0042,0.0049,0.006,0.0067,0.0286,0.0285,0.0284,0,0,0,0,0,0,-0.0642,-0.0638,-0.0576,-0.0581,-0.0568,-0.0476,-0.0484,-0.0466,-0.0439,-0.028,-0.0249,-0.0386,-0.0127,-0.0091,0.0002,-0.0027,0.0065,0.0076,0.0288,0.0286,0.0285,0.0038,0,0,0,0,0,0,-0.0644,-0.0641,-0.0651,-0.0584,-0.0569,-0.056,-0.0485,-0.0465,-0.0434,-0.0424,-0.0262,-0.0229,-0.0123,-0.0017,0.0014,-0.0009,0.0085,0.0289,0.0287,0.0285,0.0048,0.0028,0.0012,0,0,0,0,0,-0.0647,-0.0677,-0.0653,-0.0647,-0.0589,-0.0561,-0.0548,-0.0473,-0.0436,-0.0439,-0.0333,-0.0234,-0.0006,-0.0008,0.0027,0.0007,0.029,0.0287,0.0285,0.0055,0.0032,0.0013,0,0,0,0,0,0,-0.0697,-0.0665,-0.0638,-0.0655,-0.0618,-0.0542,-0.0531,-0.0489,-0.0412,-0.0392,-0.0245,-0.0207,-0.0142,-0.0029,-0.0035,0.0069,0.0158,0.0163,-0.0029,-0.0049,-0.0066,-0.0053,0.0095,0,0,0,0,0,-0.0718,-0.0734,-0.0685,-0.0697,-0.0684,-0.0613,-0.0589,-0.0548,-0.0473,-0.0438,-0.0334,-0.0215,-0.0125,-0.0058,0.0038,0.0103,0.0215,0.0116,0.0098,0.0082,0.0118,0.0232,0.0227,0.0277,0.0277,0.0277,0,0,-0.0736,-0.0723,-0.0728,-0.0709,-0.0668,-0.066,-0.0594,-0.0575,-0.0563,-0.041,-0.0361,-0.0277,-0.0125,-0.007,-0.0027,0.0026,0.0116,0.0079,0.0064,0.0111,0.0229,0.0224,0.022,0.0275,0.0276,0.0276,0,0,-0.0788,-0.0776,-0.0803,-0.0785,-0.0748,-0.0703,-0.0709,-0.065,-0.0618,-0.0574,-0.0469,-0.0406,-0.0259,-0.0171,-0.0101,-0.0148,0.0004,-0.012,-0.0181,-0.0075,-0.0078,-0.0079,-0.0,0.0008,-0.0115,-0.0116,-0.0116,0,-0.0808,-0.0838,-0.0805,-0.0823,-0.0804,-0.0733,-0.0744,-0.0709,-0.0631,-0.0595,-0.0582,-0.0394,-0.0305,-0.0202,-0.0239,-0.0189,-0.0101,-0.0127,-0.0101,-0.0098,-0.0095,-0.0013,-0.0001,-0.0128,-0.0126,-0.0125,-0.0124,0,-0.0875,-0.0892,-0.0908,-0.0903,-0.0883,-0.0886,-0.0832,-0.0811,-0.0769,-0.0716,-0.064,-0.0538,-0.0406,-0.0405,-0.0338,-0.0272,-0.0213,-0.0158,-0.0058,-0.0116,-0.0025,-0.0008,-0.0145,-0.0141,-0.0137,-0.0134,0,0,-0.0927,-0.0952,-0.0954,-0.096,-0.0925,-0.0914,-0.0898,-0.0846,-0.0811,-0.0763,-0.0703,-0.0624,-0.0557,-0.0472,-0.0393,-0.0323,-0.0291,-0.0244,-0.0233,-0.0185,-0.0064,-0.0023,0.0001,-0.023,-0.0227,-0.0225,-0.0032,0,-0.098,-0.1042,-0.1027,-0.105,-0.1065,-0.0999,-0.0981,-0.0923,-0.0862,-0.0793,-0.0694,-0.0614,-0.0581,-0.0535,-0.0464,-0.0312,-0.0245,-0.0347,0.0007,0.0018,0.0047,0.0023,0.0075,0.0254,-0.0014,-0.0011,-0.0009,0,-0.1037,-0.1071,-0.1123,-0.1116,-0.1112,-0.111,-0.1038,-0.1015,-0.0899,-0.0849,-0.0746,-0.0648,-0.0533,-0.0513,-0.0276,-0.0338,-0.0216,-0.0119,-0.0107,0.005,0.0094,0.0286,0.0298,0.0463,0.0019,0.0017,0.0015,0,-0.1083,-0.1123,-0.1167,-0.117,-0.1157,-0.1151,-0.1124,-0.1031,-0.0993,-0.087,-0.082,-0.0651,-0.056,-0.0386,-0.0201,-0.0223,0.0063,0.007,0.0225,0.0229,0.0411,0.0426,0.0624,0.0244,0.0243,0.0243,0.0242,0,-0.1138,-0.1167,-0.1197,-0.1223,-0.1246,-0.1207,-0.1188,-0.1137,-0.1038,-0.0973,-0.0849,-0.075,-0.0522,-0.0335,-0.0177,0.0085,0.0097,0.0235,0.0295,0.0319,0.0323,0.0591,0.0639,0.025,0.0248,0.0247,0.0246,0,-0.1176,-0.1203,-0.1252,-0.127,-0.1276,-0.1287,-0.1251,-0.1224,-0.1135,-0.1041,-0.1004,-0.0794,-0.0545,-0.0317,-0.0011,0.0123,0.0477,0.0445,0.0437,0.0492,0.0765,0.0796,0.1101,0.1221,0.0652,0.0654,0.0657,0,-0.1203,-0.1241,-0.1297,-0.1329,-0.1345,-0.1355,-0.1354,-0.1282,-0.124,-0.1057,-0.101,-0.0758,-0.055,-0.0104,0.0191,0.0509,0.0619,0.0721,0.0684,0.081,0.0891,0.0902,0.0981,0.0811,0.0814,0.0817,0.0819,0,-0.1245,-0.1268,-0.1312,-0.139,-0.142,-0.1436,-0.1427,-0.1404,-0.1288,-0.1183,-0.098,-0.0797,-0.036,0.0048,0.0439,0.0621,0.0849,0.0781,0.0949,0.1069,0.1069,0.1202,0.0624,0.0842,0.0839,0.0838,0.0837,0.0836,-0.1263,-0.131,-0.1377,-0.1437,-0.1476,-0.1497,-0.1485,-0.143,-0.1339,-0.1128,-0.0961,-0.0607,-0.0073,0.0502,0.0706,0.113,0.1065,0.1249,0.1285,0.1293,0.1389,0.0834,0.1088,0.1087,0.1086,0.1086,0.1085,0,-0.1284,-0.1346,-0.1417,-0.1486,-0.1521,-0.1533,-0.151,-0.1447,-0.1314,-0.1062,-0.0823,-0.014,0.0368,0.0841,0.1395,0.1618,0.167,0.1725,0.1775,0.184,0.1409,0.1395,0.1682,0.1682,0.1682,0.1682,0.1682,0.1682,-0.13,-0.1378,-0.1423,-0.1499,-0.1539,-0.1539,-0.1512,-0.1387,-0.1191,-0.0742,-0.0303,0.0054,0.0723,0.151,0.2011,0.2059,0.2255,0.2229,0.2337,0.2037,0.1995,0.1955,0.1956,0.2357,0.2357,0.2778,0.2782,0.2785]}],[{"header":{"parameterUnit":"m.s-1","parameterCategory":2,"la1":30.2991,"la2":30.254,"lo1":-89.0895,"lo2":-89.0444,"dy":0.0017,"dx":0.0017,"nx":28,"ny":28,"refTime":"2024-06-07T09:00:00:Z","depth":"2","parameterNumber":2,"parameterNumberName":"U-component_of_CURRENTS"},"data":[0,0,0,0,0,0,0,0,0,0,0,0,0,0,0,0,0,0,0,0,0,0,0,0,0,0,0,0,0,0,0,0,0,0,0,0,0,0,0,0,0,0,0,0,0,0,0,0,0,0,0,0,0,0,0,0,0,0,-0.272,-0.2721,0,-0.2734,-0.2734,-0.2734,-0.2719,-0.2719,-0.2719,-0.2719,-0.2754,-0.2755,-0.2756,0,0,0,0,0,0,0,0,0,0,0,0,0,-0.2611,-0.2613,-0.272,-0.2721,-0.2721,-0.2734,-0.2734,-0.2734,-0.2719,-0.2719,-0.2719,-0.2719,-0.2754,-0.2755,-0.2756,0,0,0,0,0,0,0,0,0,0,0,0,0,-0.2641,-0.2614,-0.272,-0.2719,-0.2719,-0.2735,-0.2734,-0.2734,-0.2719,-0.2719,-0.2719,-0.2719,-0.2753,-0.2755,-0.2756,-0.2771,0,0,-0.2761,-0.2762,0,0,0,0,0,0,0,0,-0.2639,-0.2644,-0.2719,-0.2719,-0.272,-0.2729,-0.2709,-0.2749,-0.2719,-0.2715,-0.2719,-0.2719,-0.2751,-0.2752,-0.2749,-0.2773,-0.2774,-0.2761,-0.2762,-0.2763,-0.2764,0,0,0,0,0,0,0,-0.2637,-0.2643,-0.2721,-0.2719,-0.272,-0.2694,-0.2698,-0.2715,-0.2731,-0.2715,-0.2715,-0.2724,-0.275,-0.2747,-0.275,-0.2775,-0.2761,-0.2763,-0.2764,-0.2764,-0.2751,-0.2749,0,0,0,0,0,0,-0.2649,-0.2642,-0.2721,-0.2722,-0.2683,-0.2697,-0.2701,-0.2722,-0.273,-0.2732,-0.2724,-0.2723,-0.2745,-0.2748,-0.2751,-0.2755,-0.2763,-0.2765,-0.2766,-0.2752,-0.275,-0.2749,0,0,0,0,0,0,-0.2647,-0.2656,-0.272,-0.2685,-0.2692,-0.27,-0.2723,-0.2723,-0.2728,-0.2738,-0.2739,-0.2731,-0.2745,-0.2749,-0.2755,-0.2757,-0.2765,-0.2767,-0.2754,-0.2751,-0.275,-0.2773,0,0,0,0,0,0,-0.2644,-0.2656,-0.2664,-0.2686,-0.2694,-0.273,-0.2724,-0.2724,-0.2736,-0.2734,-0.2744,-0.2746,-0.2745,-0.2752,-0.2756,-0.2759,-0.2768,-0.2755,-0.2753,-0.275,-0.2774,-0.2772,-0.277,0,0,0,0,0,-0.264,-0.265,-0.2664,-0.2673,-0.271,-0.2731,-0.2732,-0.2733,-0.2736,-0.2737,-0.2734,-0.2746,-0.2738,-0.2753,-0.2758,-0.2762,-0.2756,-0.2753,-0.275,-0.2775,-0.2772,-0.277,0,0,0,0,0,0,-0.2601,-0.2651,-0.2666,-0.2691,-0.2713,-0.273,-0.2727,-0.2741,-0.2739,-0.2739,-0.2744,-0.2746,-0.2747,-0.2745,-0.2761,-0.2743,-0.2744,-0.2742,-0.276,-0.2758,-0.2757,-0.2768,-0.2769,0,0,0,0,0,-0.2602,-0.2622,-0.2666,-0.2682,-0.2696,-0.2717,-0.2724,-0.2735,-0.2744,-0.2743,-0.275,-0.2744,-0.2737,-0.2742,-0.2736,-0.2742,-0.2724,-0.2738,-0.2737,-0.2736,-0.2743,-0.2714,-0.2712,-0.2739,-0.2739,-0.2739,0,0,-0.2588,-0.2619,-0.2629,-0.2675,-0.2689,-0.2707,-0.2718,-0.2738,-0.2747,-0.275,-0.2753,-0.2748,-0.2736,-0.2729,-0.2729,-0.2732,-0.2711,-0.2732,-0.2731,-0.274,-0.2711,-0.2709,-0.2707,-0.2737,-0.2737,-0.2738,0,0,-0.257,-0.2605,-0.2616,-0.2641,-0.2679,-0.2697,-0.271,-0.2739,-0.2744,-0.2755,-0.2747,-0.2744,-0.2742,-0.2731,-0.2725,-0.2712,-0.2702,-0.2702,-0.2713,-0.2685,-0.2683,-0.2681,-0.2633,-0.2627,-0.2703,-0.2703,-0.2703,0,-0.2548,-0.2579,-0.2618,-0.2638,-0.2652,-0.2697,-0.2709,-0.2726,-0.275,-0.2754,-0.2754,-0.274,-0.274,-0.273,-0.2719,-0.2713,-0.2685,-0.273,-0.2686,-0.2684,-0.2682,-0.2632,-0.2626,-0.2704,-0.2704,-0.2704,-0.2704,0,-0.2543,-0.2567,-0.2574,-0.2618,-0.2639,-0.2656,-0.2699,-0.2718,-0.2734,-0.2749,-0.2749,-0.2743,-0.2732,-0.2728,-0.2725,-0.2709,-0.2687,-0.269,-0.2701,-0.2681,-0.2629,-0.2622,-0.2705,-0.2705,-0.2704,-0.2704,0,0,-0.2493,-0.2556,-0.2559,-0.2575,-0.2631,-0.2648,-0.2674,-0.2704,-0.2717,-0.2736,-0.2734,-0.2732,-0.2739,-0.273,-0.2727,-0.2712,-0.2672,-0.2699,-0.2697,-0.2668,-0.259,-0.249,-0.2471,-0.2669,-0.2669,-0.2668,-0.2552,0,-0.2471,-0.2498,-0.2538,-0.2557,-0.2574,-0.2625,-0.2643,-0.2679,-0.2703,-0.2714,-0.2724,-0.2719,-0.2737,-0.2729,-0.2721,-0.269,-0.2657,-0.2702,-0.2599,-0.2596,-0.2523,-0.2461,-0.2313,-0.2191,-0.2545,-0.2544,-0.2543,0,-0.2449,-0.2472,-0.2487,-0.2533,-0.2544,-0.2562,-0.2601,-0.2625,-0.2663,-0.2679,-0.2694,-0.2705,-0.2701,-0.2707,-0.2657,-0.2684,-0.2636,-0.261,-0.2604,-0.2502,-0.2481,-0.2269,-0.2164,-0.253,-0.2531,-0.2532,-0.2533,0,-0.2388,-0.2434,-0.2442,-0.2458,-0.2518,-0.2528,-0.2557,-0.2605,-0.2625,-0.2654,-0.2662,-0.267,-0.2658,-0.2628,-0.2593,-0.2617,-0.2517,-0.2538,-0.2396,-0.2388,-0.2236,-0.2216,-0.2476,-0.2476,-0.2476,-0.2477,-0.2477,0,-0.2347,-0.235,-0.2414,-0.2418,-0.2424,-0.2484,-0.2495,-0.253,-0.2575,-0.2585,-0.2636,-0.2634,-0.2639,-0.2598,-0.2567,-0.2448,-0.249,-0.2377,-0.2346,-0.2235,-0.2216,-0.2503,-0.2507,-0.2472,-0.2473,-0.2474,-0.2475,0,-0.2269,-0.2315,-0.2325,-0.2381,-0.2395,-0.2397,-0.2455,-0.2469,-0.2522,-0.2534,-0.2541,-0.2585,-0.2525,-0.2503,-0.2431,-0.2387,-0.2302,-0.2244,-0.2103,-0.2057,-0.2197,-0.2204,-0.2069,-0.2065,-0.2061,-0.2057,-0.2055,0,-0.2228,-0.2227,-0.2278,-0.2286,-0.2306,-0.2329,-0.2348,-0.2421,-0.2442,-0.2497,-0.249,-0.2461,-0.2405,-0.2267,-0.2176,-0.2053,-0.2159,-0.1856,-0.1877,-0.2169,-0.2153,-0.2166,-0.2178,-0.1676,-0.167,-0.1666,-0.1662,0,-0.2135,-0.2158,-0.217,-0.2188,-0.2208,-0.2225,-0.2258,-0.2266,-0.2345,-0.2353,-0.2334,-0.2291,-0.2174,-0.1979,-0.1838,-0.1768,-0.1871,-0.1756,-0.2074,-0.181,-0.1791,-0.1778,-0.1804,-0.1621,-0.1625,-0.1628,-0.1631,-0.1632,-0.2054,-0.2043,-0.2065,-0.2066,-0.2094,-0.2087,-0.2044,-0.2096,-0.2085,-0.205,-0.2117,-0.1983,-0.1937,-0.1624,-0.1511,-0.1424,-0.1561,-0.1508,-0.1525,-0.1547,-0.153,-0.1506,-0.1278,-0.128,-0.1282,-0.1283,-0.1285,0,-0.194,-0.194,-0.194,-0.1928,-0.1895,-0.1953,-0.1952,-0.188,-0.1806,-0.1811,-0.1749,-0.1519,-0.1371,-0.1325,-0.112,-0.1069,-0.1092,-0.103,-0.1078,-0.1118,-0.1154,-0.1122,-0.0758,-0.0757,-0.0755,-0.0754,0,0,-0.1877,-0.1829,-0.1823,-0.1716,-0.1709,-0.16,-0.1559,-0.1485,-0.1442,-0.1321,-0.1246,-0.1305,-0.1295,-0.1036,-0.0966,-0.0829,-0.097,-0.0782,-0.1206,-0.1304,-0.1338,-0.1428,-0.1422,0,0,0,0,0]},{"header":{"parameterUnit":"m.s-1","parameterCategory":2,"la1":30.2991,"la2":30.254,"lo1":-89.0895,"lo2":-89.0444,"dy":0.0017,"dx":0.0017,"nx":28,"ny":28,"refTime":"2024-06-07T09:00:00:Z","depth":"2","parameterNumber":3,"parameterNumberName":"V-component_of_CURRENTS"},"data":[0,0,0,0,0,0,0,0,0,0,0,0,0,0,0,0,0,0,0,0,0,0,0,0,0,0,0,0,0,0,0,0,0,0,0,0,0,0,0,0,0,0,0,0,0,0,0,0,0,0,0,0,0,0,0,0,0,0,-0.0448,-0.0446,0,-0.0335,-0.0334,-0.0333,-0.0266,-0.0266,-0.0265,-0.0264,-0.0091,-0.0087,-0.0083,0,0,0,0,0,0,0,0,0,0,0,0,0,-0.051,-0.051,-0.0448,-0.0446,-0.0444,-0.0335,-0.0334,-0.0333,-0.0267,-0.0266,-0.0265,-0.0264,-0.0092,-0.0088,-0.0083,0,0,0,0,0,0,0,0,0,0,0,0,0,-0.0454,-0.051,-0.0448,-0.0394,-0.0388,-0.0336,-0.0334,-0.0333,-0.0267,-0.0266,-0.0264,-0.0263,-0.0094,-0.0088,-0.0082,-0.0069,0,0,-0.0065,-0.0062,0,0,0,0,0,0,0,0,-0.0457,-0.0452,-0.0404,-0.0398,-0.0391,-0.0309,-0.0292,-0.024,-0.0267,-0.0318,-0.0264,-0.0263,-0.0156,-0.0145,-0.0134,-0.0061,-0.0053,-0.0064,-0.006,-0.0058,-0.0056,0,0,0,0,0,0,0,-0.0461,-0.0456,-0.0408,-0.0402,-0.0394,-0.0342,-0.0335,-0.0282,-0.0247,-0.0313,-0.0307,-0.0287,-0.0153,-0.014,-0.0129,-0.0051,-0.0064,-0.0059,-0.0055,-0.0053,0.0082,0.0082,0,0,0,0,0,0,-0.0472,-0.046,-0.0412,-0.0404,-0.0416,-0.0342,-0.0334,-0.0341,-0.0249,-0.0233,-0.0288,-0.0284,-0.0151,-0.0136,-0.0123,-0.0074,-0.0058,-0.0053,-0.0049,0.0082,0.0082,0.0082,0,0,0,0,0,0,-0.0474,-0.047,-0.0416,-0.0424,-0.0413,-0.0343,-0.0351,-0.0339,-0.0322,-0.023,-0.0213,-0.0282,-0.0149,-0.0131,-0.008,-0.0067,-0.005,-0.0045,0.0082,0.0082,0.0082,0.0008,0,0,0,0,0,0,-0.0477,-0.0472,-0.0482,-0.0426,-0.0413,-0.0391,-0.0351,-0.0337,-0.0309,-0.0303,-0.0219,-0.0202,-0.0147,-0.009,-0.0075,-0.0059,-0.004,0.0082,0.0082,0.0082,0.001,0.0005,0.0001,0,0,0,0,0,-0.048,-0.0505,-0.0484,-0.0477,-0.043,-0.0391,-0.0381,-0.0329,-0.031,-0.031,-0.0254,-0.0205,-0.0077,-0.0086,-0.0068,-0.005,0.0082,0.0082,0.0082,0.0012,0.0006,0.0001,0,0,0,0,0,0,-0.0533,-0.0499,-0.0474,-0.0487,-0.0441,-0.0378,-0.0373,-0.0337,-0.0295,-0.029,-0.0209,-0.0189,-0.0138,-0.0089,-0.01,-0.001,0.0013,0.0017,-0.0046,-0.0051,-0.0056,-0.0074,-0.0035,0,0,0,0,0,-0.0551,-0.0563,-0.0508,-0.0514,-0.05,-0.0438,-0.0416,-0.0382,-0.0332,-0.0313,-0.0253,-0.0186,-0.0125,-0.0087,-0.0032,0.0013,0.0062,0.0038,0.0034,0.003,0.0027,0.0103,0.0105,0.0083,0.0083,0.0083,0,0,-0.0567,-0.0551,-0.0554,-0.0525,-0.0491,-0.0475,-0.0425,-0.0401,-0.0378,-0.03,-0.0263,-0.0205,-0.012,-0.0069,-0.004,-0.0023,0.006,0.003,0.0026,0.0025,0.0103,0.0106,0.0108,0.0083,0.0083,0.0083,0,0,-0.0608,-0.06,-0.062,-0.0596,-0.0551,-0.0508,-0.0505,-0.0447,-0.0416,-0.0373,-0.0308,-0.0246,-0.0162,-0.0092,-0.0046,-0.0042,0.0027,-0.0022,-0.0049,0.0025,0.0027,0.003,0.0083,0.0091,-0.0016,-0.0017,-0.0017,0,-0.0625,-0.0646,-0.0615,-0.0625,-0.0603,-0.0529,-0.053,-0.0489,-0.0419,-0.039,-0.0371,-0.0238,-0.0169,-0.0086,-0.0083,-0.005,-0.0009,-0.0037,0.0018,0.0022,0.0026,0.0081,0.0091,-0.002,-0.002,-0.0019,-0.0019,0,-0.0674,-0.0686,-0.0698,-0.0685,-0.066,-0.0651,-0.0585,-0.0557,-0.0507,-0.0453,-0.0378,-0.0288,-0.0204,-0.0168,-0.0122,-0.0052,-0.0034,-0.0004,0.0028,0.0024,0.0081,0.0093,-0.0025,-0.0024,-0.0023,-0.0022,0,0,-0.0714,-0.073,-0.0732,-0.0736,-0.0692,-0.0675,-0.0643,-0.0582,-0.0555,-0.048,-0.0433,-0.0325,-0.0274,-0.0219,-0.0145,-0.0076,-0.0011,-0.0036,-0.003,0.0008,0.0136,0.0165,0.0181,0.0025,0.0027,0.0029,0.016,0,-0.0751,-0.0797,-0.0782,-0.0793,-0.0802,-0.0739,-0.0713,-0.065,-0.0583,-0.0523,-0.0414,-0.0346,-0.0291,-0.025,-0.0173,-0.0048,0.0017,-0.0051,0.0141,0.0147,0.0167,0.0195,0.0164,0.028,0.0172,0.0174,0.0175,0,-0.0794,-0.0819,-0.0856,-0.085,-0.0846,-0.0838,-0.0779,-0.0745,-0.0643,-0.0593,-0.0506,-0.042,-0.0301,-0.0262,-0.0058,-0.0107,0.0001,0.0093,0.0101,0.0164,0.0199,0.0271,0.0306,0.0195,0.0194,0.0192,0.0191,0,-0.0833,-0.0859,-0.0892,-0.0893,-0.0878,-0.0876,-0.0851,-0.0771,-0.0737,-0.0638,-0.0599,-0.0454,-0.0371,-0.0222,-0.0031,-0.0044,0.0189,0.0202,0.0328,0.0331,0.0361,0.0363,0.0337,0.0337,0.0336,0.0336,0.0335,0,-0.0874,-0.0898,-0.0922,-0.0943,-0.0967,-0.0933,-0.0926,-0.0882,-0.0807,-0.0759,-0.0643,-0.0563,-0.0358,-0.0197,-0.004,0.0186,0.0188,0.0331,0.0375,0.0333,0.0331,0.0304,0.0298,0.0341,0.034,0.0339,0.0338,0,-0.0911,-0.0929,-0.097,-0.0986,-0.0994,-0.1011,-0.0993,-0.0977,-0.0906,-0.0839,-0.0811,-0.063,-0.0417,-0.0209,0.0056,0.0181,0.0387,0.0462,0.0388,0.0421,0.0476,0.0465,0.0612,0.0614,0.0616,0.0617,0.0619,0,-0.0935,-0.0966,-0.1017,-0.1049,-0.1064,-0.1083,-0.1091,-0.1036,-0.1009,-0.0864,-0.083,-0.0623,-0.0447,-0.0064,0.019,0.0466,0.0463,0.0581,0.0559,0.048,0.0508,0.0494,0.0481,0.0566,0.0567,0.0567,0.0568,0,-0.0976,-0.0997,-0.1035,-0.1112,-0.1146,-0.1169,-0.1173,-0.1164,-0.1073,-0.0989,-0.0824,-0.0672,-0.0313,0.0,0.0332,0.0484,0.0531,0.0603,0.0573,0.0493,0.0446,0.047,0.0457,0.0574,0.0573,0.0573,0.0572,0.0572,-0.1,-0.1044,-0.1104,-0.1165,-0.1207,-0.1236,-0.1234,-0.1197,-0.113,-0.0963,-0.0825,-0.0553,-0.0281,0.0218,0.0438,0.0631,0.0631,0.0678,0.0672,0.0667,0.0631,0.0589,0.0736,0.0736,0.0736,0.0737,0.0737,0,-0.1028,-0.1084,-0.1151,-0.1221,-0.126,-0.1274,-0.1268,-0.1218,-0.1114,-0.0926,-0.073,-0.0389,-0.0054,0.0223,0.0541,0.0722,0.069,0.0738,0.0663,0.0657,0.0651,0.061,0.0712,0.0713,0.0713,0.0713,0,0,-0.1048,-0.1121,-0.116,-0.1241,-0.1284,-0.1298,-0.128,-0.1176,-0.103,-0.0809,-0.0593,-0.0334,-0.0007,0.0213,0.043,0.0585,0.0569,0.059,0.0593,0.0472,0.0464,0.0602,0.0531,0,0,0,0,0]}],[{"header":{"parameterUnit":"m.s-1","parameterCategory":2,"la1":30.2991,"la2":30.254,"lo1":-89.0895,"lo2":-89.0444,"dy":0.0017,"dx":0.0017,"nx":28,"ny":28,"refTime":"2024-06-07T09:00:00:Z","depth":"4","parameterNumber":2,"parameterNumberName":"U-component_of_CURRENTS"},"data":[0,0,0,0,0,0,0,0,0,0,0,0,0,0,0,0,0,0,0,0,0,0,0,0,0,0,0,0,0,0,0,0,0,0,0,0,0,0,0,0,0,0,0,0,0,0,0,0,0,0,0,0,0,0,0,0,0,0,-0.1799,-0.1799,0,-0.1845,-0.1845,-0.1846,-0.1887,-0.1888,-0.1889,-0.1889,-0.1933,-0.1934,-0.1934,0,0,0,0,0,0,0,0,0,0,0,0,0,-0.1719,-0.1721,-0.1799,-0.1799,-0.18,-0.1845,-0.1845,-0.1846,-0.1887,-0.1888,-0.1889,-0.1889,-0.1933,-0.1933,-0.1934,0,0,0,0,0,0,0,0,0,0,0,0,0,-0.1758,-0.1721,-0.1799,-0.1826,-0.1829,-0.1845,-0.1845,-0.1846,-0.1887,-0.1888,-0.1889,-0.189,-0.1932,-0.1933,-0.1934,-0.1925,0,0,-0.1937,-0.1938,0,0,0,0,0,0,0,0,-0.1756,-0.1761,-0.1822,-0.1824,-0.1828,-0.1861,-0.1833,-0.1872,-0.1887,-0.1865,-0.1889,-0.189,-0.1908,-0.1911,-0.1918,-0.1927,-0.1929,-0.1938,-0.1938,-0.1939,-0.1939,0,0,0,0,0,0,0,-0.1753,-0.1759,-0.1817,-0.1822,-0.1826,-0.1827,-0.1833,-0.1841,-0.1881,-0.1867,-0.187,-0.1875,-0.191,-0.1917,-0.1919,-0.193,-0.1938,-0.1938,-0.1939,-0.1939,-0.2004,-0.2005,0,0,0,0,0,0,-0.1749,-0.1757,-0.1815,-0.1818,-0.1793,-0.1828,-0.1835,-0.185,-0.1882,-0.1887,-0.1875,-0.1877,-0.1915,-0.1918,-0.1921,-0.1985,-0.1939,-0.194,-0.194,-0.2003,-0.2004,-0.2006,0,0,0,0,0,0,-0.1747,-0.1754,-0.1814,-0.1788,-0.1796,-0.1829,-0.1844,-0.185,-0.189,-0.1887,-0.1893,-0.1912,-0.1915,-0.192,-0.1955,-0.1984,-0.194,-0.1941,-0.2002,-0.2003,-0.2005,-0.2066,0,0,0,0,0,0,-0.1745,-0.1753,-0.1777,-0.1788,-0.1797,-0.1842,-0.1844,-0.185,-0.1889,-0.1894,-0.192,-0.1923,-0.1916,-0.1954,-0.1956,-0.1985,-0.1942,-0.2,-0.2003,-0.2004,-0.2063,-0.207,-0.2076,0,0,0,0,0,-0.1742,-0.1763,-0.1778,-0.1785,-0.1824,-0.1843,-0.1849,-0.1873,-0.1891,-0.1912,-0.1932,-0.1924,-0.1968,-0.1956,-0.1958,-0.1988,-0.1999,-0.2002,-0.2004,-0.206,-0.2069,-0.2076,0,0,0,0,0,0,-0.174,-0.177,-0.1786,-0.1817,-0.1839,-0.1851,-0.1875,-0.1892,-0.1925,-0.194,-0.194,-0.1944,-0.1985,-0.1977,-0.1963,-0.2012,-0.1982,-0.1985,-0.2024,-0.2032,-0.2038,-0.2033,-0.1943,0,0,0,0,0,-0.175,-0.1778,-0.18,-0.1828,-0.1843,-0.1867,-0.1885,-0.1904,-0.1925,-0.1943,-0.1961,-0.1978,-0.1991,-0.2006,-0.2014,-0.2043,-0.2014,-0.2063,-0.207,-0.2075,-0.2073,-0.206,-0.2065,-0.2014,-0.2014,-0.2014,0,0,-0.1755,-0.1777,-0.1793,-0.183,-0.1851,-0.1876,-0.1881,-0.1918,-0.1946,-0.1941,-0.1994,-0.2004,-0.2004,-0.2036,-0.2053,-0.2039,-0.2073,-0.2079,-0.2083,-0.2078,-0.2063,-0.2068,-0.2072,-0.2015,-0.2015,-0.2015,0,0,-0.1763,-0.1802,-0.1823,-0.1848,-0.1888,-0.1903,-0.1922,-0.1957,-0.1985,-0.2027,-0.2032,-0.2061,-0.2086,-0.2092,-0.2094,-0.2141,-0.2107,-0.2151,-0.2183,-0.2171,-0.2175,-0.2178,-0.2139,-0.2138,-0.2155,-0.2155,-0.2155,0,-0.1768,-0.1799,-0.1832,-0.1858,-0.1881,-0.192,-0.1945,-0.1977,-0.2022,-0.2043,-0.2053,-0.2099,-0.2107,-0.2136,-0.2156,-0.2157,-0.2134,-0.2155,-0.2179,-0.2181,-0.2183,-0.2142,-0.214,-0.2158,-0.2158,-0.2158,-0.2157,0,-0.178,-0.1819,-0.1835,-0.1883,-0.1915,-0.1945,-0.1988,-0.2032,-0.2071,-0.2094,-0.2146,-0.216,-0.2182,-0.2197,-0.2193,-0.2221,-0.2193,-0.2187,-0.2157,-0.2192,-0.2147,-0.2144,-0.2163,-0.2162,-0.2161,-0.216,0,0,-0.1748,-0.1827,-0.1837,-0.1865,-0.1933,-0.1955,-0.2014,-0.2062,-0.2098,-0.2151,-0.2184,-0.2227,-0.2243,-0.2247,-0.2254,-0.2254,-0.2253,-0.2235,-0.2233,-0.2193,-0.2207,-0.2057,-0.2039,-0.2254,-0.2254,-0.2254,-0.2166,0,-0.1746,-0.1795,-0.1839,-0.1893,-0.192,-0.1981,-0.2027,-0.2084,-0.213,-0.2174,-0.2209,-0.2243,-0.226,-0.2276,-0.2284,-0.2261,-0.2249,-0.2276,-0.2182,-0.2178,-0.2039,-0.2032,-0.2255,-0.2164,-0.2163,-0.2162,-0.2162,0,-0.1734,-0.1772,-0.1822,-0.1898,-0.1917,-0.196,-0.2037,-0.2083,-0.2155,-0.219,-0.2238,-0.2262,-0.2292,-0.2291,-0.2273,-0.2291,-0.2255,-0.2231,-0.2227,-0.2061,-0.2023,-0.2124,-0.2155,-0.2156,-0.2156,-0.2157,-0.2157,0,-0.1678,-0.1758,-0.1799,-0.1826,-0.1917,-0.1958,-0.2009,-0.2089,-0.2127,-0.2199,-0.2222,-0.2267,-0.2277,-0.2265,-0.2236,-0.2255,-0.2184,-0.2198,-0.2024,-0.2013,-0.2149,-0.2147,-0.2165,-0.2166,-0.2166,-0.2166,-0.2166,0,-0.164,-0.1677,-0.1782,-0.1803,-0.1853,-0.1933,-0.199,-0.2047,-0.2121,-0.2144,-0.2226,-0.2231,-0.2271,-0.2245,-0.2222,-0.2096,-0.2169,-0.2012,-0.1976,-0.2176,-0.2178,-0.2146,-0.2144,-0.2163,-0.2163,-0.2164,-0.2165,0,-0.1564,-0.1637,-0.1689,-0.1794,-0.1827,-0.1865,-0.1968,-0.2002,-0.2085,-0.2113,-0.2134,-0.2195,-0.2147,-0.215,-0.2103,-0.2043,-0.1962,-0.1899,-0.2087,-0.2067,-0.1804,-0.1807,-0.1691,-0.1685,-0.168,-0.1676,-0.1672,0,-0.1524,-0.1546,-0.1663,-0.1697,-0.1749,-0.1821,-0.1862,-0.1967,-0.1992,-0.2067,-0.2056,-0.2053,-0.2068,-0.1867,-0.1903,-0.1811,-0.1797,-0.1748,-0.1801,-0.1776,-0.1754,-0.1766,-0.1776,-0.1664,-0.1663,-0.1661,-0.166,0,-0.144,-0.1501,-0.1544,-0.161,-0.1668,-0.1715,-0.1779,-0.1779,-0.1875,-0.1974,-0.1906,-0.1864,-0.1793,-0.1748,-0.1672,-0.1627,-0.1782,-0.1694,-0.1705,-0.1755,-0.1741,-0.1727,-0.1743,-0.1642,-0.1644,-0.1646,-0.1647,0,-0.1378,-0.1391,-0.1457,-0.1496,-0.1568,-0.157,-0.1626,-0.1634,-0.1662,-0.1749,-0.1718,-0.1716,-0.1763,-0.1648,-0.1593,-0.1516,-0.1504,-0.1473,-0.1496,-0.1516,-0.1501,-0.1461,-0.1224,0,0,0,0,0,-0.1306,-0.13,-0.1333,-0.1364,-0.1429,-0.1457,-0.1547,-0.1606,-0.1697,-0.1597,-0.1648,-0.1575,-0.148,-0.1494,-0.1371,-0.1515,-0.1514,-0.137,-0.1494,-0.1542,-0.1563,-0.1563,0,0,0,0,0,0,-0.1254,-0.1284,-0.1284,-0.1235,-0.123,-0.1272,-0.132,-0.139,-0.1344,-0.1444,-0.1393,-0.1473,-0.1398,-0.1499,-0.1331,-0.1332,-0.1377,-0.1385,-0.1381,-0.1531,-0.1549,-0.1566,-0.1573,0,0,0,0,0]},{"header":{"parameterUnit":"m.s-1","parameterCategory":2,"la1":30.2991,"la2":30.254,"lo1":-89.0895,"lo2":-89.0444,"dy":0.0017,"dx":0.0017,"nx":28,"ny":28,"refTime":"2024-06-07T09:00:00:Z","depth":"4","parameterNumber":3,"parameterNumberName":"V-component_of_CURRENTS"},"data":[0,0,0,0,0,0,0,0,0,0,0,0,0,0,0,0,0,0,0,0,0,0,0,0,0,0,0,0,0,0,0,0,0,0,0,0,0,0,0,0,0,0,0,0,0,0,0,0,0,0,0,0,0,0,0,0,0,0,-0.0312,-0.0311,0,-0.0247,-0.0247,-0.0246,-0.0214,-0.0213,-0.0213,-0.0213,-0.0128,-0.0127,-0.0125,0,0,0,0,0,0,0,0,0,0,0,0,0,-0.0344,-0.0344,-0.0312,-0.0311,-0.031,-0.0247,-0.0247,-0.0246,-0.0214,-0.0213,-0.0213,-0.0212,-0.0129,-0.0127,-0.0125,0,0,0,0,0,0,0,0,0,0,0,0,0,-0.0313,-0.0344,-0.0312,-0.0283,-0.028,-0.0247,-0.0247,-0.0246,-0.0214,-0.0213,-0.0213,-0.0212,-0.013,-0.0127,-0.0124,-0.0116,0,0,-0.0115,-0.0114,0,0,0,0,0,0,0,0,-0.0315,-0.0313,-0.0289,-0.0285,-0.0281,-0.0235,-0.0227,-0.02,-0.0214,-0.0243,-0.0213,-0.0212,-0.016,-0.0155,-0.0149,-0.0112,-0.0109,-0.0115,-0.0113,-0.0112,-0.0111,0,0,0,0,0,0,0,-0.0317,-0.0315,-0.029,-0.0287,-0.0283,-0.0251,-0.0248,-0.0222,-0.0207,-0.024,-0.0237,-0.0224,-0.0159,-0.0152,-0.0147,-0.0108,-0.0115,-0.0113,-0.0111,-0.011,-0.0015,-0.0014,0,0,0,0,0,0,-0.0322,-0.0317,-0.0292,-0.0287,-0.0293,-0.0251,-0.0247,-0.0253,-0.0208,-0.02,-0.0224,-0.0223,-0.0157,-0.015,-0.0144,-0.0106,-0.0112,-0.0109,-0.0108,-0.0016,-0.0015,-0.0014,0,0,0,0,0,0,-0.0324,-0.0322,-0.0294,-0.0297,-0.0291,-0.0252,-0.0258,-0.0252,-0.0245,-0.0196,-0.0188,-0.0224,-0.0157,-0.0148,-0.0119,-0.0104,-0.0108,-0.0105,-0.0017,-0.0016,-0.0014,-0.0048,0,0,0,0,0,0,-0.0325,-0.0323,-0.0333,-0.0298,-0.0291,-0.0279,-0.0258,-0.0251,-0.0236,-0.0234,-0.0192,-0.0184,-0.0155,-0.0124,-0.0116,-0.01,-0.0103,-0.0018,-0.0016,-0.0015,-0.0048,-0.0048,-0.0048,0,0,0,0,0,-0.0327,-0.0346,-0.0335,-0.0331,-0.0306,-0.0279,-0.0274,-0.0245,-0.0237,-0.0238,-0.0206,-0.0185,-0.0108,-0.0121,-0.0113,-0.0095,-0.0018,-0.0017,-0.0015,-0.0048,-0.0048,-0.0048,0,0,0,0,0,0,-0.0362,-0.0343,-0.033,-0.0342,-0.0312,-0.0273,-0.0273,-0.0251,-0.0228,-0.0228,-0.0185,-0.0174,-0.014,-0.0114,-0.013,-0.0061,-0.0056,-0.0053,-0.0084,-0.0084,-0.0084,-0.0101,-0.0101,0,0,0,0,0,-0.0375,-0.0388,-0.0352,-0.0359,-0.0351,-0.0314,-0.0301,-0.028,-0.025,-0.0241,-0.0208,-0.0168,-0.0126,-0.0105,-0.0071,-0.0042,-0.0014,-0.002,-0.002,-0.0021,-0.0027,0.0031,0.0036,-0.0008,-0.0008,-0.0008,0,0,-0.0387,-0.038,-0.0384,-0.0367,-0.0348,-0.0337,-0.0307,-0.0293,-0.0276,-0.0235,-0.0213,-0.0174,-0.012,-0.0083,-0.0064,-0.0059,0.0006,-0.0019,-0.002,-0.0026,0.0034,0.0038,0.0042,-0.0007,-0.0007,-0.0008,0,0,-0.0415,-0.0416,-0.0432,-0.0417,-0.039,-0.0361,-0.0359,-0.0322,-0.0302,-0.0273,-0.0231,-0.0184,-0.0135,-0.0083,-0.0051,-0.0032,-0.0001,-0.0019,-0.0031,0.0026,0.003,0.0034,0.0068,0.0075,-0.0015,-0.0015,-0.0015,0,-0.0428,-0.0445,-0.0428,-0.0436,-0.0424,-0.0376,-0.0377,-0.0347,-0.0302,-0.0283,-0.0272,-0.0178,-0.013,-0.0066,-0.0053,-0.0032,-0.0008,-0.0037,0.0025,0.0029,0.0033,0.0068,0.0076,-0.0017,-0.0016,-0.0016,-0.0016,0,-0.046,-0.0474,-0.0483,-0.0476,-0.0462,-0.0457,-0.041,-0.0391,-0.0359,-0.032,-0.0263,-0.0195,-0.0138,-0.0104,-0.0073,-0.0011,-0.0008,0.0012,0.002,0.0035,0.0071,0.008,-0.0019,-0.0018,-0.0018,-0.0017,0,0,-0.0483,-0.0502,-0.0505,-0.0513,-0.0485,-0.0475,-0.0451,-0.0408,-0.0393,-0.0333,-0.0302,-0.0209,-0.0174,-0.0134,-0.0077,-0.0019,0.004,0.0004,0.0007,0.0026,0.0146,0.0128,0.0136,0.0066,0.0068,0.0069,0.0155,0,-0.0507,-0.0543,-0.0536,-0.055,-0.0559,-0.052,-0.0502,-0.0459,-0.0413,-0.0372,-0.0282,-0.0234,-0.0182,-0.0155,-0.0086,0.0007,0.0063,0.0013,0.0137,0.014,0.0115,0.0146,0.0074,0.0162,0.0164,0.0165,0.0167,0,-0.0531,-0.0554,-0.0587,-0.0596,-0.0596,-0.0596,-0.0565,-0.0541,-0.0469,-0.0435,-0.0367,-0.0301,-0.0201,-0.0165,-0.0002,-0.004,0.0045,0.0118,0.0124,0.0123,0.014,0.0148,0.0183,0.0182,0.0181,0.018,0.0179,0,-0.0554,-0.0583,-0.0614,-0.0619,-0.062,-0.0628,-0.0619,-0.0567,-0.0548,-0.0478,-0.0454,-0.0336,-0.0274,-0.0149,0.0004,-0.0,0.0175,0.0192,0.0256,0.0255,0.0257,0.0252,0.0302,0.0302,0.0302,0.0302,0.0301,0,-0.0575,-0.0601,-0.0638,-0.0658,-0.0692,-0.0675,-0.0688,-0.0662,-0.0617,-0.0588,-0.0495,-0.0438,-0.0267,-0.0143,-0.0011,0.0146,0.0167,0.0255,0.0282,0.024,0.0233,0.0263,0.0257,0.0305,0.0304,0.0304,0.0303,0,-0.0591,-0.0615,-0.0659,-0.0693,-0.071,-0.0735,-0.075,-0.0747,-0.0705,-0.0665,-0.0645,-0.0507,-0.0347,-0.0178,0.0033,0.0122,0.0277,0.0328,0.0256,0.0277,0.0318,0.031,0.04,0.0401,0.0401,0.0401,0.0401,0,-0.0601,-0.063,-0.0699,-0.0736,-0.0761,-0.0799,-0.082,-0.0797,-0.0784,-0.0694,-0.0668,-0.0521,-0.0411,-0.0126,0.0039,0.0268,0.0304,0.0362,0.0355,0.0314,0.0331,0.0323,0.0314,0.0401,0.0401,0.0402,0.0402,0,-0.0619,-0.0652,-0.0692,-0.0778,-0.0825,-0.0862,-0.0887,-0.0882,-0.0832,-0.0799,-0.0658,-0.0505,-0.0329,-0.0116,0.0053,0.0223,0.0311,0.0364,0.0365,0.036,0.0317,0.0331,0.0323,0.0402,0.0402,0.0402,0.0402,0,-0.0632,-0.0672,-0.0737,-0.0801,-0.0866,-0.09,-0.0912,-0.0875,-0.0849,-0.0741,-0.0692,-0.0491,-0.0372,-0.0139,0.0027,0.0177,0.0216,0.0254,0.0261,0.0262,0.0194,0.0117,0.0168,0,0,0,0,0,-0.0639,-0.0688,-0.0756,-0.0826,-0.0886,-0.0918,-0.094,-0.0932,-0.0887,-0.0787,-0.0732,-0.0556,-0.0293,-0.0176,-0.0024,0.0007,0.0215,0.0184,0.0256,0.0406,0.0405,0.0347,0,0,0,0,0,0,-0.0649,-0.0718,-0.0754,-0.0826,-0.0871,-0.0927,-0.0937,-0.091,-0.084,-0.0773,-0.0624,-0.0535,-0.0278,-0.0372,-0.0022,0.0021,0.0082,0.0312,0.0314,0.0406,0.0406,0.0405,0.0345,0,0,0,0,0]}]]